Find Starlink 11358

NORAD ID: 62558 Int'l Des: 2025-006 Owner: SPXS Country: US Constellation: starlink operational
LEOCIRCULAR

Live-Position

3D-Globus wird geladen...

Über Starlink 11358

Beschreibung wird geladen...

Nächste Überflüge

Passes for default location (London). Set your location on the main map for personalized predictions.

Höhenverlauf

Loading altitude history...

Zweizeiliger Elementsatz

1 62558U 25006E 26124.39203156 .00174058 00000-0 13319-2 0 9997
2 62558 42.9989 164.0736 0000906 178.8468 181.2402 15.70836908 75369
Epoch: 4. Mai 2026 • Age: 7 hours

Aktueller Status

Höhe 369.5 km
Geschwindigkeit 7.69 km/s
Subsatellitenpunkt -43.12°S, 42.98°W
Startdatum 10. Jan. 2025
Alter 1.3 years
Typ internet

Technische Details

Klassifizierung Payload
Masse 960.00 kg
Trockenmasse 910.00 kg
Gesamtmasse 960.00 kg
Länge 0.30 m
Durchmesser 4.10 m
Spannweite 29.00 m
Form Box + pan
Hersteller SPXS
Bus-Typ Starlink V2MD
Phasenstatus In Orbit
Besitzer/Staat SPXS/US

Most Searched